Regional Weather Roundup
Issued by NWS Charleston, SC

Current Version | Previous Version | Text Only | Print | Product List | Glossary Off
Versions: 1 2 3 4 5 6 7 8 9 10 11 12 13 14 15 16 17 18 19 20 21 22 23 24 25 26 27 28 29 30 31 32 33 34 35 36 37 38 39 40 41 42 43 44 45 46 47 48 49 50
000 ASUS42 KCHS 290210 RWRCHS REGIONAL WEATHER ROUNDUP NATIONAL WEATHER SERVICE CHARLESTON SC 1000 PM EDT MON JUL 28 2014 NOTE: "FAIR" INDICATES FEW OR NO CLOUDS BELOW 12,000 FEET WITH NO SIGNIFICANT WEATHER AND/OR OBSTRUCTIONS TO VISIBILITY. NOT ALL STATIONS ARE QUALITY CONTROLLED BY THE NATIONAL WEATHER SERVICE. USE DATA WITH CAUTION...ESPECIALLY DEWPOINT OBSERVATIONS. SCZ027-030-031-034>040-042>050-290300- ...SOUTH CAROLINA... CITY SKY/WX TMP DP RH WIND PRES REMARKS N CHARLESTON PTCLDY 85 75 72 W6 29.83R HX 93 WATERFRONT PRK N/A 86 N/A N/A SW5 N/A FORT JOHNSON NOT AVBL MOUNT PLEASANT FAIR 84 75 74 CALM 29.83R HX 92 JOHNS ISLAND CLEAR 82 73 74 CALM 29.84R PINOPOLIS N/A 84 73 70 SW10 29.75R HX 91 MONCKS CORNER N/A 82 75 78 W5 29.83R SUMMERVILLE FAIR 77 77 100 CALM 29.85R BEAUFORT MCAS MOCLDY 84 75 74 NW6 29.85R HX 92 BEAUFORT ARPT MOCLDY 86 73 66 W9 29.84R HX 93 HILTON HEAD IS MOCLDY 86 75 70 SW6 29.86R HX 95 GEORGETOWN NOT AVBL WALTERBORO PTCLDY 82 72 69 W5 29.85R ORANGEBURG CLEAR 83 61 47 NW5 29.86R BARNWELL FAIR 84 64 51 NW3 29.87R AIKEN FAIR 81 64 57 NW3 29.92R MANNING FAIR 82 72 69 CALM 29.84R KINGSTREE NOT AVBL COLUMBIA PTCLDY 86 57 37 NW6 29.87R SUMTER PTCLDY 83 62 49 NW8 29.85R FLORENCE N/A 82 63 52 N7 29.85R MYRTLE BEACH NOT AVBL N MYRTLE BEACH PTCLDY 75 73 93 CALM 29.82R $$ GAZ063-065-086>088-099>101-113>116-118-119-134-136>141-150-290300- ...GEORGIA... CITY SKY/WX TMP DP RH WIND PRES REMARKS SAVANNAH ARPT MOCLDY 83 71 67 W5 29.86R HUNTER AAF MOCLDY 82 72 71 W5 29.84R FORT STEWART PTCLDY 77 76 95 SW3 29.87R STATESBORO NOT AVBL SYLVANIA MOCLDY 76 73 88 W6 29.88S CLAXTON FAIR 81 79 94 CALM 29.88R THOMSON CLEAR 80 69 68 NW3 29.95R AUGUSTA-BUSH CLEAR 84 59 42 NW8 29.87R AUGUSTA-DANIEL PTCLDY 86 59 39 NW7 29.90R SWAINSBORO FAIR 79 79 100 CALM 29.90R VIDALIA N/A 82 70 65 W7 29.89R ALMA NOT AVBL WAYCROSS MOCLDY 85 70 60 SW5 29.91R HX 90 JESUP FAIR 88 73 62 W6 29.90R HX 96 BRUNSWICK CLOUDY 88 73 62 SW12G18 29.90R HX 96 SAINT SIMONS CLOUDY 86 75 69 SW14 29.89R HX 95 $$ SCZ027-028-034-036>038-045-046-048>050-GAZ119-141-290300- ...LAKE AND SUPPLEMENTAL COASTAL OBSERVATIONS... STATION/POSITION TIME TEMP WIND PRES WAVE SWELL AIR SEA DIR/SP/G HT/PER HT/PER/DIR (UTC) (F) (DEG/KT/KT) (MB) (FT/S) (FT/S/D) UPR LAKE MARION NOT AVBL WINYAH BAY 0100 80 310/ 2 1009.0S LAKE MURRAY 0100 82 320/ 3/ 6 1010.8R ACE BASIN NERRS 0100 83 CALM 1010.0S FORT PULASKI 0200 87 250/ 4/ 5 1011.1R SAPELO ISLAND 0100 89 230/ 9 1011.0S $$ ANZ835-935-AMZ111-154-330-350-352-354-374-450-454-472-290300- ...C-MAN AND BUOY OBSERVATIONS... STATION/POSITION TIME TEMP WIND PRES WAVE SWELL AIR SEA DIR/SP/G HT/PER HT/PER/DIR (UTC) (F) (DEG/KT/KT) (MB) (FT/S) (FT/S/D) FOLLY BEACH CMAN 0100 86 230/ 8/ 11 1010.2R BUOY 41004 0200 85 84 220/ 19/ 23 1009.2R 5/ 6 2/ 9 BUOY 41008 0200 87 85 230/ 16/ 19 1010.8R 2/ 4 2/110/ 8 5E ST. MARYS GA 0200 85 N/A 2/ 3 FRYING PAN BUOY NOT AVBL BUOY 41025 0200 VRB 16/ 17 1007.0F 4/ 6 2/160/ 8 CAPE LOOKOUT NC 0100 78 260/ 10/ 11 1008.8F BUOY 41002 0110 82 81 230/ 17/ 21 1013.7S 6/ 8 BUOY 41010 0200 84 84 200/ 17/ 19 1014.9F 3/ 6 2/120/ 8 BUOY 41012 NOT AVBL ST AUGUSTINE FL 0200 81 220/ 6/ 7 1014.5R CAPERS NEARSHORE 0100 86 240/ 12/ 16 N/A FRIPP NEARSHORE NOT AVBL $$

USA.gov is the U.S. government's official web portal to all federal, state and local government web resources and services.